| time (UTC) | temp F | wind direction | speed MPH | gust MPH | rain 1hr in | rain 24hr in | rain mn in | humidity % | barometer mb |
| 20260903022733 | 67 | 248 | 9.0 | 11.0 | 0.00 | 0.00 | 0.00 | 81 | 1015.6 |
| 20260903021532 | 67 | 236 | 10.0 | 14.0 | 0.00 | 0.00 | 0.00 | 81 | 1015.6 |
| 20260903020331 | 67 | 231 | 12.0 | 15.0 | 0.00 | 0.00 | 0.00 | 81 | 1015.6 |
| 20260903015130 | 66 | 235 | 8.0 | 9.0 | 0.00 | 0.00 | 0.00 | 81 | 1015.6 |
| 20260903013929 | 66 | 232 | 6.0 | 10.0 | 0.00 | 0.00 | 0.00 | 82 | 1015.6 |
| 20260903012728 | 66 | 234 | 6.0 | 11.0 | 0.00 | 0.00 | 0.00 | 83 | 1015.6 |
| 20260903011547 | 66 | 238 | 5.0 | 7.0 | 0.00 | 0.00 | 0.00 | 83 | 1015.6 |
| 20260903010326 | 66 | 225 | 4.0 | 8.0 | 0.00 | 0.00 | 0.00 | 83 | 1015.6 |
| 20260903005125 | 66 | 242 | 5.0 | 6.0 | 0.00 | 0.00 | 0.00 | 83 | 1015.6 |
| 20260903003923 | 66 | 225 | 4.0 | 7.0 | 0.00 | 0.00 | 0.00 | 83 | 1015.6 |
| 20260903002722 | 66 | 236 | 4.0 | 7.0 | 0.00 | 0.00 | 0.00 | 83 | 1017.3 |
| 20260903001521 | 66 | 248 | 7.0 | 8.0 | 0.00 | 0.00 | 0.00 | 83 | 1019.0 |
| 20260903000320 | 67 | 248 | 6.0 | 9.0 | 0.00 | 0.00 | 0.00 | 83 | 1019.0 |
| 20260902235159 | 67 | 232 | 8.0 | 13.0 | 0.00 | 0.00 | 0.00 | 82 | 1019.0 |
| 20260902233918 | 67 | 248 | 12.0 | 16.0 | 0.00 | 0.00 | 0.00 | 81 | 1019.0 |
| 20260902232717 | 67 | 236 | 14.0 | 15.0 | 0.00 | 0.00 | 0.00 | 80 | 1019.0 |
| 20260902231515 | 66 | 228 | 8.0 | 12.0 | 0.00 | 0.00 | 0.00 | 79 | 1019.0 |
| 20260902230415 | 66 | 248 | 6.0 | 7.0 | 0.00 | 0.00 | 0.00 | 79 | 1019.0 |
| 20260902225213 | 67 | 225 | 6.0 | 7.0 | 0.00 | 0.00 | 0.00 | 78 | 1019.0 |
| 20260902224012 | 67 | 248 | 4.0 | 6.0 | 0.00 | 0.00 | 0.00 | 78 | 1019.0 |
| 20260902222812 | 67 | 248 | 7.0 | 10.0 | 0.00 | 0.00 | 0.00 | 79 | 1019.0 |
| 20260902221610 | 67 | 248 | 7.0 | 8.0 | 0.00 | 0.00 | 0.00 | 79 | 1019.0 |
| 20260902220409 | 67 | 248 | 4.0 | 6.0 | 0.00 | 0.00 | 0.00 | 79 | 1019.0 |
| 20260902215201 | 67 | 242 | 3.0 | 4.0 | 0.00 | 0.00 | 0.00 | 78 | 1019.0 |
| 20260902213959 | 67 | 248 | 5.0 | 6.0 | 0.00 | 0.00 | 0.00 | 79 | 1019.0 |
| 20260902212758 | 67 | 235 | 5.0 | 7.0 | 0.00 | 0.00 | 0.00 | 79 | 1019.0 |
| 20260902211557 | 67 | 248 | 6.0 | 8.0 | 0.00 | 0.00 | 0.00 | 80 | 1019.0 |
| 20260902210356 | 67 | 248 | 6.0 | 7.0 | 0.00 | 0.00 | 0.00 | 81 | 1019.0 |
| 20260902205155 | 67 | 225 | 4.0 | 6.0 | 0.00 | 0.00 | 0.00 | 82 | 1019.0 |
| 20260902204014 | 67 | 225 | 3.0 | 5.0 | 0.00 | 0.00 | 0.00 | 82 | 1019.0 |
| 20260902202753 | 67 | 225 | 4.0 | 7.0 | 0.00 | 0.00 | 0.00 | 82 | 1019.0 |
| 20260902201551 | 67 | 234 | 4.0 | 5.0 | 0.00 | 0.00 | 0.00 | 82 | 1019.0 |
| 20260902200350 | 67 | 225 | 3.0 | 5.0 | 0.00 | 0.00 | 0.00 | 83 | 1019.0 |
| 20260902195149 | 67 | 203 | 1.0 | 3.0 | 0.00 | 0.00 | 0.00 | 82 | 1019.0 |
| 20260902194007 | 67 | 225 | 3.0 | 3.0 | 0.00 | 0.00 | 0.00 | 82 | 1019.0 |
| 20260902192747 | 68 | 248 | 4.0 | 5.0 | 0.00 | 0.00 | 0.00 | 82 | 1019.0 |
| 20260902191546 | 68 | 241 | 4.0 | 5.0 | 0.00 | 0.00 | 0.00 | 81 | 1019.0 |
| 20260902190345 | 68 | 248 | 4.0 | 6.0 | 0.00 | 0.00 | 0.00 | 80 | 1019.0 |
| 20260902185144 | 68 | 238 | 5.0 | 7.0 | 0.00 | 0.00 | 0.00 | 79 | 1019.0 |
| 20260902183943 | 69 | 225 | 5.0 | 7.0 | 0.00 | 0.00 | 0.00 | 78 | 1019.0 |
| 20260902182741 | 69 | 241 | 7.0 | 9.0 | 0.00 | 0.00 | 0.00 | 78 | 1019.0 |
| 20260902181620 | 69 | 225 | 4.0 | 7.0 | 0.00 | 0.00 | 0.00 | 77 | 1019.0 |
| 20260902180339 | 69 | 225 | 8.0 | 9.0 | 0.00 | 0.00 | 0.00 | 77 | 1019.0 |
| 20260902175137 | 70 | 242 | 7.0 | 9.0 | 0.00 | 0.00 | 0.00 | 77 | 1019.0 |
| 20260902173936 | 70 | 225 | 8.0 | 8.0 | 0.00 | 0.00 | 0.00 | 77 | 1019.0 |
| 20260902172756 | 70 | 225 | 9.0 | 11.0 | 0.00 | 0.00 | 0.00 | 77 | 1019.0 |
| 20260902171534 | 70 | 225 | 8.0 | 11.0 | 0.00 | 0.00 | 0.00 | 76 | 1019.0 |
| 20260902170333 | 71 | 248 | 6.0 | 7.0 | 0.00 | 0.00 | 0.00 | 76 | 1019.0 |
| 20260902165152 | 70 | 248 | 6.0 | 10.0 | 0.00 | 0.00 | 0.00 | 76 | 1019.0 |
| 20260902163951 | 70 | 225 | 6.0 | 8.0 | 0.00 | 0.00 | 0.00 | 75 | 1019.0 |
| 20260902162730 | 71 | 231 | 6.0 | 9.0 | 0.00 | 0.00 | 0.00 | 74 | 1019.0 |
| 20260902161528 | 71 | 248 | 4.0 | 6.0 | 0.00 | 0.00 | 0.00 | 73 | 1019.0 |
| 20260902160327 | 72 | 235 | 13.0 | 15.0 | 0.00 | 0.00 | 0.00 | 73 | 1019.0 |
| 20260902155126 | 72 | 248 | 7.0 | 11.0 | 0.00 | 0.00 | 0.00 | 72 | 1019.0 |
| 20260902153925 | 72 | 229 | 8.0 | 9.0 | 0.00 | 0.00 | 0.00 | 72 | 1019.0 |
| 20260902152724 | 72 | 248 | 7.0 | 9.0 | 0.00 | 0.00 | 0.00 | 73 | 1019.0 |
| 20260902151523 | 72 | 270 | 6.0 | 11.0 | 0.00 | 0.00 | 0.00 | 72 | 1019.0 |
| 20260902150322 | 73 | 278 | 7.0 | 12.0 | 0.00 | 0.00 | 0.00 | 72 | 1019.0 |
| 20260902145121 | 73 | 293 | 7.0 | 11.0 | 0.00 | 0.00 | 0.00 | 72 | 1019.0 |
| 20260902143940 | 73 | 262 | 5.0 | 9.0 | 0.00 | 0.00 | 0.00 | 71 | 1019.0 |
| 20260902142718 | 73 | 270 | 8.0 | 13.0 | 0.00 | 0.00 | 0.00 | 72 | 1019.0 |
| 20260902141517 | 73 | 270 | 9.0 | 10.0 | 0.00 | 0.00 | 0.00 | 72 | 1019.0 |
| 20260902140316 | 72 | 259 | 10.0 | 13.0 | 0.00 | 0.00 | 0.00 | 75 | 1019.0 |
| 20260902135116 | 72 | 266 | 10.0 | 12.0 | 0.00 | 0.00 | 0.00 | 76 | 1019.0 |
| 20260902134015 | 71 | 253 | 8.0 | 11.0 | 0.00 | 0.00 | 0.00 | 75 | 1019.0 |
| 20260902132834 | 72 | 270 | 9.0 | 13.0 | 0.00 | 0.00 | 0.00 | 73 | 1019.0 |
| 20260902131613 | 73 | 270 | 5.0 | 11.0 | 0.00 | 0.00 | 0.00 | 72 | 1019.0 |
| 20260902130411 | 73 | 270 | 4.0 | 6.0 | 0.00 | 0.00 | 0.00 | 72 | 1019.0 |
| 20260902125210 | 73 | 266 | 9.0 | 15.0 | 0.00 | 0.00 | 0.00 | 72 | 1019.0 |
| 20260902124009 | 73 | 240 | 10.0 | 13.0 | 0.00 | 0.00 | 0.00 | 74 | 1019.0 |
| 20260902122808 | 73 | 286 | 7.0 | 11.0 | 0.00 | 0.00 | 0.00 | 74 | 1019.0 |
| 20260902121627 | 73 | 263 | 8.0 | 11.0 | 0.00 | 0.00 | 0.00 | 75 | 1019.0 |
| 20260902120406 | 73 | 270 | 7.0 | 9.0 | 0.00 | 0.00 | 0.00 | 74 | 1019.0 |
| 20260902115205 | 73 | 270 | 8.0 | 11.0 | 0.00 | 0.00 | 0.00 | 75 | 1019.0 |
| 20260902114004 | 73 | 258 | 11.0 | 12.0 | 0.00 | 0.00 | 0.00 | 75 | 1019.0 |
| 20260902112802 | 72 | 277 | 6.0 | 8.0 | 0.00 | 0.00 | 0.00 | 76 | 1019.0 |
| 20260902111601 | 73 | 270 | 8.0 | 13.0 | 0.00 | 0.00 | 0.00 | 75 | 1019.0 |
| 20260902110400 | 73 | 270 | 5.0 | 9.0 | 0.00 | 0.00 | 0.00 | 75 | 1019.0 |
| 20260902105159 | 73 | 270 | 8.0 | 11.0 | 0.00 | 0.00 | 0.00 | 76 | 1019.0 |
| 20260902103959 | 73 | 258 | 6.0 | 8.0 | 0.00 | 0.00 | 0.00 | 76 | 1019.0 |
| 20260902102757 | 73 | 248 | 9.0 | 11.0 | 0.00 | 0.00 | 0.00 | 76 | 1019.0 |
| 20260902101555 | 73 | 243 | 6.0 | 8.0 | 0.00 | 0.00 | 0.00 | 77 | 1019.0 |
| 20260902100354 | 73 | 247 | 7.0 | 10.0 | 0.00 | 0.00 | 0.00 | 80 | 1019.0 |
| 20260902095153 | 72 | 250 | 10.0 | 13.0 | 0.00 | 0.00 | 0.00 | 81 | 1019.0 |
| 20260902093952 | 71 | 277 | 7.0 | 9.0 | 0.00 | 0.00 | 0.00 | 84 | 1019.0 |
| 20260902092751 | 70 | 281 | 6.0 | 8.0 | 0.00 | 0.00 | 0.00 | 86 | 1019.0 |
| 20260902091610 | 69 | 270 | 6.0 | 9.0 | 0.00 | 0.00 | 0.00 | 88 | 1019.0 |
| 20260902090349 | 67 | 248 | 10.0 | 11.0 | 0.00 | 0.00 | 0.00 | 89 | 1019.0 |
| 20260902085148 | 66 | 264 | 8.0 | 11.0 | 0.00 | 0.00 | 0.00 | 91 | 1019.0 |
| 20260902084007 | 66 | 248 | 7.0 | 9.0 | 0.00 | 0.00 | 0.00 | 92 | 1019.0 |
| 20260902082746 | 65 | 270 | 7.0 | 11.0 | 0.00 | 0.00 | 0.00 | 92 | 1019.0 |
| 20260902081544 | 64 | 248 | 9.0 | 10.0 | 0.00 | 0.00 | 0.00 | 93 | 1019.0 |
| 20260902080404 | 63 | 256 | 6.0 | 8.0 | 0.00 | 0.00 | 0.00 | 94 | 1019.0 |
| 20260902075142 | 63 | 260 | 7.0 | 12.0 | 0.00 | 0.00 | 0.00 | 94 | 1019.0 |
| 20260902073941 | 63 | 257 | 8.0 | 9.0 | 0.00 | 0.00 | 0.00 | 94 | 1019.0 |
| 20260902072740 | 62 | 251 | 6.0 | 11.0 | 0.00 | 0.00 | 0.00 | 95 | 1019.0 |
| 20260902071538 | 62 | 262 | 5.0 | 9.0 | 0.00 | 0.00 | 0.00 | 95 | 1019.0 |
| 20260902070357 | 62 | 263 | 6.0 | 9.0 | 0.00 | 0.00 | 0.00 | 96 | 1019.0 |
| 20260902065135 | 61 | 248 | 10.0 | 13.0 | 0.00 | 0.00 | 0.00 | 97 | 1019.0 |
| 20260902063935 | 61 | 242 | 7.0 | 9.0 | 0.00 | 0.00 | 0.00 | 97 | 1019.0 |
| 20260902062733 | 59 | 248 | 8.0 | 11.0 | 0.00 | 0.00 | 0.00 | 97 | 1019.0 |
| 20260902061532 | 59 | 225 | 9.0 | 13.0 | 0.00 | 0.00 | 0.00 | 97 | 1019.0 |
| 20260902060331 | 59 | 250 | 6.0 | 9.0 | 0.00 | 0.00 | 0.00 | 97 | 1019.0 |
| 20260902055130 | 59 | 248 | 7.0 | 8.0 | 0.00 | 0.00 | 0.00 | 97 | 1019.0 |
| 20260902053949 | 58 | 256 | 6.0 | 9.0 | 0.00 | 0.00 | 0.00 | 97 | 1019.0 |
| 20260902052728 | 58 | 225 | 3.0 | 4.0 | 0.00 | 0.00 | 0.00 | 97 | 1019.0 |
| 20260902051526 | 58 | 231 | 2.0 | 5.0 | 0.00 | 0.00 | 0.00 | 97 | 1019.0 |
| 20260902050325 | 58 | 225 | 2.0 | 4.0 | 0.00 | 0.00 | 0.00 | 97 | 1019.0 |
| 20260902045124 | 58 | 225 | 2.0 | 3.0 | 0.00 | 0.00 | 0.00 | 97 | 1019.0 |
| 20260902043923 | 58 | 241 | 1.0 | 3.0 | 0.00 | 0.00 | 0.00 | 97 | 1019.0 |
| 20260902042722 | 58 | 220 | 3.0 | 4.0 | 0.00 | 0.00 | 0.00 | 96 | 1019.0 |
| 20260902041521 | 58 | 206 | 3.0 | 5.0 | 0.00 | 0.00 | 0.00 | 96 | 1019.0 |
| 20260902040320 | 59 | 203 | 3.0 | 4.0 | 0.00 | 0.00 | 0.00 | 96 | 1019.0 |
| 20260902035118 | 58 | 180 | 2.0 | 3.0 | 0.00 | 0.00 | 0.00 | 96 | 1019.0 |
| 20260902033917 | 59 | 129 | 1.0 | 3.0 | 0.00 | 0.00 | 0.00 | 96 | 1019.0 |
| 20260902032716 | 59 | 203 | 3.0 | 5.0 | 0.00 | 0.00 | 0.00 | 96 | 1019.0 |
| 20260902031515 | 59 | 214 | 2.0 | 3.0 | 0.00 | 0.00 | 0.00 | 96 | 1019.0 |
| 20260902030414 | 59 | 217 | 2.0 | 5.0 | 0.00 | 0.00 | 0.00 | 96 | 1019.0 |
| 20260902025213 | 59 | 224 | 2.0 | 3.0 | 0.00 | 0.00 | 0.00 | 96 | 1019.0 |
| 20260902024032 | 59 | 248 | 3.0 | 5.0 | 0.00 | 0.00 | 0.00 | 96 | 1019.0 |